Location: Cosy Dell
(34.2789°N, 117.4537°W)
Time: 10:34:07
(UTC+00:00)

Cosmos 1975 - Pass Details

Date: 14 July 2020
Orbit: 542 x 561 km, 82.5° (Epoch: 08 August)

Event Time Altitude Azimuth Distance (km) Brightness Sun altitude
Exits shadow 11:44:46 18° 233° (SW) 1,357 4.1 -12.1°
Maximum altitude 11:46:53 29° 281° (W) 1,008 3.8 -11.7°
Drops below altitude 10° 11:50:23 10° 343° (NNW) 1,813 5.7 -11.1°
Sets 11:52:46 0° 355° (N) 2,708 6.8 -10.7°
